Weather History for Huntsville Madison, AL

Change the Weather History Date:

Friday, February 14, 2014

  Actual Average (KHSV) Record (KHSV)
Temperature  
Mean Temperature 38 °F 45 °F  
Max Temperature 48 °F 56 °F 77 °F (1926)
Min Temperature 28 °F 35 °F 9 °F (1960)
Degree Days  
Heating Degree Days 27 20  
Month to date heating degree days 295  
Since 1 July heating degree days 2205  
Cooling Degree Days 0 0  
Month to date cooling degree days 0  
Year to date cooling degree days 0  
Moisture  
Dew Point 31 °F    
Average Humidity 72    
Maximum Humidity 93    
Minimum Humidity 54    
Precipitation  
Precipitation 0.09 in 0.17 in 1.49 in (1922)
Month to date precipitation 2.35  
Year to date precipitation 7.24  
Snow  
Snow 0.00 in - - ()
Month to date snowfall  
Since 1 July snowfall  
Snow Depth -    
Sea Level Pressure  
Sea Level Pressure 29.82 in    
Wind  
Wind Speed 5 mph (SSW)    
Max Wind Speed 21 mph    
Max Gust Speed 29 mph    
Visibility 9 miles    
Events Rain    
T = Trace of Precipitation, MM = Missing Value Source: NWS Daily Summary

Daily Weather History Graph

Daily Weather History Graph

Search for Another Location

Airport:

Trip Planner

Search our weather history database for the weather conditions in past years. The results will help you decide how hot, cold, wet, or windy it might be!

Date:

Astronomy

Feb. 14, 2014 Rise Set
Actual Time 6:33 AM CST 5:28 PM CST
Civil Twilight 6:07 AM CST 5:54 PM CST
Nautical Twilight 5:37 AM CST 6:23 PM CST
Astronomical Twilight 5:08 AM CST 6:53 PM CST
Moon 5:29 PM CST (2/14) 6:00 AM CST (2/14)
Length of Visible Light 11h 46m
Length of Day
10h 55m
Full, 100% of the Moon is Illuminated
Feb 14
Full
Feb 14
Full
Feb 22
Last Quarter
Mar 1
New
Mar 8
First Quarter

Hourly Weather History & Observations

Time (CST) Temp. Windchill Dew Point Humidity Pressure Visibility Wind Dir Wind Speed Gust Speed Precip Events Conditions
12:15 AM 33.8 °F 29.6 °F 26.6 °F 75% 29.90 in 10.0 mi SW 4.6 mph - N/A   Clear
12:35 AM 33.8 °F - 26.6 °F 75% 29.90 in 10.0 mi Calm Calm - N/A   Clear
12:55 AM 33.8 °F 30.8 °F 26.6 °F 75% 29.90 in 10.0 mi SW 3.5 mph - N/A   Clear
1:15 AM 32.0 °F 27.5 °F 26.6 °F 80% 29.90 in 10.0 mi SW 4.6 mph - N/A   Clear
1:35 AM 32.0 °F - 26.6 °F 80% 29.90 in 10.0 mi Calm Calm - N/A   Clear
1:55 AM 32.0 °F - 26.6 °F 80% 29.89 in 10.0 mi Calm Calm - N/A   Clear
2:15 AM 30.2 °F - 26.6 °F 86% 29.89 in 10.0 mi Calm Calm - N/A   Clear
2:35 AM 32.0 °F 27.5 °F 26.6 °F 80% 29.89 in 10.0 mi SSW 4.6 mph - N/A   Clear
2:55 AM 32.0 °F - 26.6 °F 80% 29.89 in 10.0 mi Calm Calm - N/A   Clear
3:15 AM 30.2 °F - 26.6 °F 86% 29.88 in 10.0 mi Calm Calm - N/A   Clear
3:35 AM 30.2 °F - 24.8 °F 80% 29.88 in 10.0 mi Calm Calm - N/A   Clear
3:55 AM 30.2 °F - 24.8 °F 80% 29.88 in 10.0 mi Calm Calm - N/A   Clear
4:15 AM 30.2 °F - 26.6 °F 86% 29.88 in 10.0 mi Calm Calm - N/A   Clear
4:35 AM 30.2 °F - 24.8 °F 80% 29.88 in 10.0 mi Calm Calm - N/A   Clear
4:55 AM 30.2 °F 26.7 °F 26.6 °F 86% 29.88 in 10.0 mi SSE 3.5 mph - N/A   Clear
5:15 AM 28.4 °F 24.6 °F 24.8 °F 86% 29.88 in 10.0 mi SSE 3.5 mph - N/A   Clear
5:35 AM 32.0 °F 27.5 °F 26.6 °F 80% 29.88 in 10.0 mi South 4.6 mph - N/A   Clear
5:55 AM 32.0 °F 27.5 °F 26.6 °F 80% 29.89 in 10.0 mi South 4.6 mph - N/A   Clear
6:15 AM 32.0 °F 25.6 °F 26.6 °F 80% 29.88 in 10.0 mi SSE 6.9 mph - N/A   Clear
6:35 AM 33.8 °F 27.7 °F 26.6 °F 75% 29.88 in 10.0 mi SSE 6.9 mph - N/A   Clear
6:55 AM 33.8 °F 28.6 °F 26.6 °F 75% 29.88 in 10.0 mi SSE 5.8 mph - N/A   Clear
7:15 AM 33.8 °F 28.6 °F 28.4 °F 81% 29.88 in 10.0 mi SSE 5.8 mph - N/A   Clear
7:35 AM 35.6 °F 31.7 °F 28.4 °F 75% 29.88 in 10.0 mi SSE 4.6 mph - N/A   Clear
7:55 AM 35.6 °F 32.8 °F 28.4 °F 75% 29.89 in 10.0 mi SSE 3.5 mph - N/A   Clear
8:15 AM 37.4 °F 32.8 °F 30.2 °F 75% 29.89 in 10.0 mi South 5.8 mph - N/A   Clear
8:35 AM 41.0 °F 39.0 °F 30.2 °F 65% 29.89 in 10.0 mi SSE 3.5 mph - N/A   Clear
8:55 AM 41.0 °F 37.1 °F 30.2 °F 65% 29.89 in 10.0 mi South 5.8 mph - N/A   Clear
9:15 AM 42.8 °F 39.3 °F 30.2 °F 61% 29.88 in 10.0 mi South 5.8 mph - N/A   Clear
9:35 AM 42.8 °F 39.3 °F 30.2 °F 61% 29.88 in 10.0 mi South 5.8 mph - N/A   Clear
9:55 AM 44.6 °F 40.2 °F 32.0 °F 61% 29.88 in 10.0 mi South 8.1 mph - N/A   Clear
10:15 AM 44.6 °F 40.7 °F 32.0 °F 61% 29.88 in 10.0 mi South 6.9 mph - N/A   Clear
10:35 AM 44.6 °F 41.4 °F 32.0 °F 61% 29.88 in 10.0 mi South 5.8 mph - N/A   Clear
10:55 AM 44.6 °F 40.7 °F 32.0 °F 61% 29.87 in 10.0 mi South 6.9 mph - N/A   Clear
11:15 AM 46.4 °F 43.5 °F 32.0 °F 57% 29.87 in 10.0 mi South 5.8 mph - N/A   Clear
11:35 AM 46.4 °F 42.4 °F 32.0 °F 57% 29.86 in 10.0 mi South 8.1 mph - N/A   Clear
11:55 AM 46.4 °F 42.4 °F 32.0 °F 57% 29.85 in 10.0 mi SSW 8.1 mph - N/A   Clear
12:15 PM 46.4 °F 41.9 °F 32.0 °F 57% 29.84 in 10.0 mi South 9.2 mph - N/A   Clear
12:35 PM 48.2 °F - 32.0 °F 54% 29.82 in 10.0 mi South 10.4 mph - N/A   Clear
12:55 PM 48.2 °F - 32.0 °F 54% 29.79 in 10.0 mi South 6.9 mph - N/A   Clear
1:15 PM 46.4 °F 41.5 °F 32.0 °F 57% 29.78 in 10.0 mi South 10.4 mph - N/A   Clear
1:35 PM 46.4 °F 42.9 °F 32.0 °F 57% 29.77 in 10.0 mi South 6.9 mph - N/A   Clear
1:55 PM 48.2 °F - 32.0 °F 54% 29.78 in 10.0 mi South 10.4 mph - N/A   Clear
2:15 PM 48.2 °F - 32.0 °F 54% 29.77 in 10.0 mi South 8.1 mph - N/A   Clear
2:35 PM 48.2 °F - 32.0 °F 54% 29.76 in 10.0 mi South 11.5 mph 16.1 mph N/A   Clear
2:55 PM 48.2 °F - 32.0 °F 54% 29.74 in 10.0 mi South 9.2 mph - N/A   Clear
3:15 PM 48.2 °F - 32.0 °F 54% 29.72 in 10.0 mi South 6.9 mph - N/A   Clear
3:35 PM 48.2 °F - 32.0 °F 54% 29.73 in 10.0 mi South 10.4 mph - N/A   Clear
3:55 PM 48.2 °F - 32.0 °F 54% 29.71 in 10.0 mi SSE 5.8 mph - N/A   Clear
4:15 PM 48.2 °F - 32.0 °F 54% 29.71 in 10.0 mi South 6.9 mph - N/A   Clear
4:35 PM 46.4 °F 42.4 °F 33.8 °F 62% 29.71 in 10.0 mi SSW 8.1 mph - N/A   Clear
4:55 PM 46.4 °F 41.5 °F 33.8 °F 62% 29.72 in 10.0 mi SSW 10.4 mph - N/A   Clear
5:15 PM 46.4 °F 41.9 °F 33.8 °F 62% 29.72 in 10.0 mi SSW 9.2 mph - N/A   Clear
5:35 PM 46.4 °F 42.9 °F 35.6 °F 66% 29.73 in 10.0 mi SSW 6.9 mph 16.1 mph N/A Rain Rain
5:55 PM 44.6 °F 38.8 °F 35.6 °F 71% 29.73 in 7.0 mi SSW 11.5 mph - N/A Rain Rain
6:15 PM 44.6 °F 39.2 °F 37.4 °F 76% 29.73 in 7.0 mi SW 10.4 mph - 0.01 in Rain Rain
6:35 PM 44.6 °F 40.2 °F 37.4 °F 76% 29.72 in 7.0 mi SSW 8.1 mph - 0.01 in Rain Light Rain
6:55 PM 44.6 °F 42.2 °F 37.4 °F 76% 29.73 in 7.0 mi WSW 4.6 mph - 0.01 in Rain Light Rain
7:15 PM 44.6 °F - 39.2 °F 81% 29.72 in 7.0 mi Calm Calm - 0.01 in Rain Rain
7:35 PM 42.8 °F - 37.4 °F 81% 29.72 in 4.0 mi Calm Calm - 0.04 in Rain Rain
7:55 PM 42.8 °F 40.1 °F 39.2 °F 87% 29.72 in 7.0 mi WSW 4.6 mph - 0.06 in Rain Light Rain
8:15 PM 42.8 °F 39.3 °F 39.2 °F 87% 29.72 in 7.0 mi NNW 5.8 mph - 0.01 in Rain Light Rain
8:35 PM 42.8 °F 41.1 °F 39.2 °F 87% 29.72 in 7.0 mi West 3.5 mph - 0.01 in Rain Light Rain
8:55 PM 42.8 °F - 39.2 °F 87% 29.72 in 10.0 mi Calm Calm - 0.01 in   Light Drizzle
9:15 PM 42.8 °F 38.6 °F 41.0 °F 93% 29.73 in 3.0 mi West 6.9 mph - 0.01 in Rain Rain
9:35 PM 42.8 °F 36.6 °F 41.0 °F 93% 29.74 in 5.0 mi West 11.5 mph - 0.01 in   Drizzle
9:55 PM 42.8 °F 34.0 °F 37.4 °F 81% 29.75 in 7.0 mi WNW 20.7 mph 28.8 mph 0.01 in   Overcast
10:15 PM 41.0 °F 32.8 °F 35.6 °F 81% 29.76 in 10.0 mi NW 16.1 mph 21.9 mph N/A   Overcast
10:35 PM 41.0 °F 32.5 °F 33.8 °F 76% 29.77 in 10.0 mi NW 17.3 mph 21.9 mph N/A   Overcast
10:55 PM 39.2 °F 30.2 °F 33.8 °F 81% 29.78 in 10.0 mi NW 17.3 mph 21.9 mph N/A   Overcast
11:15 PM 37.4 °F 27.2 °F 32.0 °F 81% 29.80 in 7.0 mi WNW 19.6 mph 27.6 mph N/A   Overcast
11:35 PM 35.6 °F 25.9 °F 32.0 °F 87% 29.82 in 4.0 mi NW 16.1 mph 23.0 mph N/A   Drizzle
11:55 PM 33.8 °F 22.5 °F 32.0 °F 93% 29.84 in 7.0 mi NW 19.6 mph 28.8 mph N/A   Overcast